Home > Weather > Douai > Past weeks

Flag for France Past Weather in Douai, Nord-Pas-de-Calais, France — Yesterday and Last 2 Weeks

Now
68 °F

Sunny.


Feels Like: 68 °F
Forecast: 56 / 70 °F
Wind: 12 mph from Northwest

Location: Lille Airport

Current Time: Jul 26, 2016 at 7:59:58 PM

Latest Report: Jul 26, 2016 at 7:30 PM


Visibility: 10 mi

Pressure: 30.15 "Hg

Humidity: 60%

Dew Point: 54 °F

Location of DouaiLocation

Past Weather in Douai — Graph

°F

Douai Temperature Yesterday

Maximum temperature yesterday: 79 °F (at 4:00 PM)
Minimum temperature yesterday: 61 °F (at 11:30 PM)
Average temperature yesterday: 70 °F

High & Low Weather Summary for the Past Weeks

 TemperatureHumidityPressure
High90 °F (Jul 19, 3:00 PM)100% (Jul 13, 8:00 AM)30.33 "Hg (Jul 13, 8:00 AM)
Low50 °F (Jul 14, 7:00 AM)36% (Jul 19, 3:30 PM)29.83 "Hg (Jul 20, 9:30 AM)
Average68 °F71%30.09 "Hg
* Reported Jul 11 6:00 PM — Jul 26 6:30 PM, Douai, Weather by CustomWeather, © 2016

Note: Actual official high and low records may vary slightly from our data, if they occured in-between our weather recording intervals... More about our weather records

Advertising

Douai Weather History for the Previous 24 Hours

Scroll right to see more
 ConditionsComfort  
Time TempWeatherWind HumidityBarometerVisibility
6:30 PM
Tue, Jul 26
70 °FSunny.13 mph57%30.15 "Hg10 mi
6:00 PM70 °FSunny.13 mph57%30.15 "Hg10 mi
5:30 PM72 °FMostly cloudy.14 mph57%30.15 "HgN/A
5:00 PM72 °FPassing clouds.9 mph53%30.15 "HgN/A
4:30 PM72 °FPartly sunny.9 mph53%30.15 "HgN/A
4:00 PM72 °FOvercast.12 mph53%30.15 "HgN/A
3:30 PM72 °FSunny.12 mph61%30.15 "Hg10 mi
3:00 PM72 °FPassing clouds.8 mph61%30.15 "HgN/A
2:30 PM72 °FOvercast.7 mph57%30.15 "HgN/A
2:00 PM72 °FOvercast.5 mph57%30.15 "HgN/A
1:30 PM73 °FBroken clouds.3 mph53%30.15 "HgN/A
1:00 PM72 °FOvercast.6 mph57%30.15 "HgN/A
12:30 PM72 °FPartly sunny.6 mph61%30.15 "HgN/A
12:00 PM72 °FPassing clouds.6 mph65%30.15 "HgN/A
11:30 AM70 °FPassing clouds.5 mph69%30.15 "HgN/A
11:00 AM68 °FPassing clouds.3 mph69%30.15 "HgN/A
10:30 AM66 °FSunny.3 mph78%30.15 "Hg10 mi
10:00 AM66 °FPassing clouds.5 mph78%30.15 "HgN/A
9:30 AM63 °FSunny.6 mph88%30.15 "Hg10 mi
9:00 AM61 °FPassing clouds.5 mph88%30.15 "HgN/A
8:30 AM61 °FPassing clouds.3 mph88%30.15 "HgN/A
8:00 AM59 °FSunny.1 mph94%30.15 "Hg10 mi
7:30 AM57 °FSunny.No wind88%30.15 "Hg10 mi
7:00 AM55 °FClear.No wind94%30.15 "Hg10 mi
6:30 AM55 °FClear.2 mph94%30.15 "Hg10 mi
6:00 AM55 °FClear.2 mph94%30.12 "Hg10 mi
5:30 AM55 °FClear.1 mph94%30.15 "Hg10 mi
5:00 AM55 °FClear.2 mph94%30.15 "Hg10 mi
4:30 AM55 °FClear.3 mph94%30.15 "Hg10 mi
4:00 AM55 °FClear.2 mph94%30.15 "Hg10 mi
3:30 AM57 °FClear.3 mph88%30.15 "Hg10 mi
3:00 AM57 °FClear.No wind88%30.15 "Hg10 mi
2:30 AM55 °FClear.2 mph88%30.15 "Hg10 mi
2:00 AM57 °FClear.3 mph88%30.15 "Hg10 mi
1:30 AM59 °FClear.3 mph77%30.15 "Hg10 mi
1:00 AM59 °FClear.3 mph77%30.15 "Hg10 mi
12:30 AM59 °FClear.6 mph82%30.15 "Hg10 mi
12:00 AM61 °FClear.8 mph72%30.15 "Hg10 mi
11:30 PM
Mon, Jul 25
61 °FClear.7 mph72%30.15 "Hg10 mi
11:00 PM63 °FClear.9 mph68%30.15 "Hg10 mi
10:30 PM64 °FSunny.9 mph64%30.15 "Hg10 mi
10:00 PM66 °FSunny.8 mph60%30.12 "Hg10 mi
9:30 PM68 °FSunny.8 mph56%30.12 "Hg10 mi
9:00 PM70 °FSunny.12 mph53%30.12 "Hg10 mi
8:30 PM70 °FSunny.13 mph57%30.12 "Hg10 mi
8:00 PM72 °FSunny.10 mph50%30.12 "Hg10 mi
7:30 PM73 °FSunny.13 mph44%30.12 "Hg10 mi
7:00 PM75 °FSunny.13 mph44%30.12 "Hg10 mi
Weather by CustomWeather, © 2016

See weather overviewHow to use our weather pages